Location: Bourg-d�Oueil
(42.8588°N, 0.4991°E)
Time: 15:19:19
(UTC+00:00)

Cosmos 1455 - Pass Details

Date: 16 June 2021
Orbit: 496 x 522 km, 82.5° (Epoch: 31 July)

Event Time Altitude Azimuth Distance (km) Brightness Sun altitude
Rises 23:32:08 0° 346° (NNW) 2,647 7.2 -23.5°
Reaches altitude 10° 23:34:19 10° 342° (NNW) 1,751 5.9 -23.5°
Enters shadow 23:37:39 49° 290° (WNW) 671 2.8 -23.6°
